Regional Weather Roundup
Issued by NWS Jackson, KY

Home | Current Version | Previous Version | Text Only | Print | Product List | Glossary Off
Versions: 1 2 3 4 5 6 7 8 9 10 11 12 13 14 15 16 17 18 19 20 21 22 23 24 25 26 27 28 29 30 31 32 33 34 35 36 37 38 39 40 41 42 43 44 45 46 47 48 49 50

000
ASUS43 KJKL 040710
RWRJKL

EAST KENTUCKY HOURLY WEATHER ROUNDUP
NATIONAL WEATHER SERVICE JACKSON KY
300 AM EDT MON MAY 04 2015

NOTE: "FAIR" INDICATES FEW OR NO CLOUDS BELOW 12,000 FEET WITH
NO SIGNIFICANT WEATHER AND/OR OBSTRUCTIONS TO VISIBILITY.

* THESE REPORTS ARE NOT UNDER NWS QUALITY CONTROL AND MAY NOT
  REPORT WEATHER SUCH AS PRECIPITATION AND FOG.

KYZ079-080-083-085-087-088-110-112-115-119-120-040800
...EASTERN KENTUCKY...

CITY           SKY/WX    TMP DP  RH WIND       PRES   REMARKS
JACKSON        CLEAR     60  44  55 CALM      30.16S
LONDON         CLEAR     55  48  77 CALM      30.16S
SOMERSET*      CLEAR     52  50  93 CALM      30.17R
MONTICELLO*    CLEAR     52  50  93 CALM      30.19R
MIDDLESBORO*   CLEAR     49  47  94 CALM      30.20S
HARLAN APT*    SUNNY     50  46  87 CALM      30.20S
HAZARD APT*    SUNNY     57  46  67 CALM      30.16S
BLACK MTN*       N/A     55  43  62 S9          N/A
PIKEVILLE APT* CLEAR     57  45  62 SE5       30.16S
BIG SANDY*     SUNNY     58  46  63 CALM      30.16R
MOREHEAD APT*  SUNNY     55  46  71 S5        30.16R
$$

KYZ035-036-041-042-044-050-067-078-099-040800
...CENTRAL KENTUCKY...

CITY           SKY/WX    TMP DP  RH WIND       PRES   REMARKS
MT STERLING*   CLEAR     54  46  76 SW6       30.16R
FLEMING/MASON* CLEAR     57  46  67 S6        30.15R
DANVILLE*      CLEAR     52  48  87 CALM      30.16R
RICHMOND*      CLEAR     63  46  55 SW6       30.14R
LEXINGTON      CLEAR     56  48  74 S7        30.13R
FRANKFORT      CLEAR     55  48  77 CALM      30.11R
$$

KYZ091>093-OHZ055-061-077-WVZ005-015-034-035-042-040800
...SOUTHERN OHIO/WEST VIRGINIA...

CITY           SKY/WX    TMP DP  RH WIND       PRES   REMARKS
COVINGTON      MOCLDY    59  48  67 S6        30.11R
COLUMBUS       CLEAR     56  48  74 CALM      30.11R
DAYTON         PTCLDY    63  47  55 S8        30.10F
WILMINGTON     CLEAR     57  44  62 S3        30.12R
HUNTINGTON     CLEAR     52  46  80 CALM      30.13R
CHARLESTON     CLEAR     50  43  77 CALM      30.14S
PINEVILLE*     CLEAR     46  44  94 MISG      30.24S
BECKLEY        CLEAR     57  42  57 S5        30.21S
BLUEFIELD      CLEAR     63  43  48 SW6       30.23F
$$

VAZ002-007-008-TNZ017-027-036-066-071-040800
...SOUTHWEST VIRGINIA/EAST TENNESSEE...

CITY           SKY/WX    TMP DP  RH WIND       PRES   REMARKS
WISE*          CLEAR     55  37  50 SW6       30.23S
JONESVILLE*    SUNNY     48  45  87 CALM      30.22S
ABINGDON*      CLOUDY    53  45  73 CALM      30.22S
BRISTOL        MOCLDY    54  48  80 CALM      30.20F
KNOXVILLE      CLEAR     58  50  75 CALM      30.17S
OAK RIDGE      CLEAR     54  50  86 CALM      30.19S
CROSSVILLE     CLEAR     57  44  62 CALM      30.19F
NASHVILLE      CLEAR     59  50  72 S5        30.13S
$$

...KEY TO REMARKS...
VSB - VISIBILITY IN MILES
WCI - WIND CHILL INDEX
HX  - HEAT INDEX

$$


USA.gov is the U.S. government's official web portal to all federal, state and local government web resources and services.